Location: Knowlton
(51.2333°N, 1.2667°E)
Time: 04:42:07
(UTC+00:00)

Cosmos 2227 Rocket - Pass Details

Date: 18 April 2021
Orbit: 840 x 844 km, 71.0° (Epoch: 06 May)

Event Time Altitude Azimuth Distance (km) Brightness Sun altitude
Exits shadow 23:20:24 - 253° (WSW) 3,037 5.0 -27.2°
Reaches altitude 10° 23:22:10 10° 261° (W) 2,466 4.6 -27.2°
Maximum altitude 23:26:56 27° 319° (NW) 1,571 4.1 -27.3°
Drops below altitude 10° 23:31:43 10° 17° (NNE) 2,473 5.5 -27.4°
Sets 23:34:34 0° 29° (NNE) 3,411 6.2 -27.4°
